Location: Noverd
(38.0910°N, 121.6877°W)
Time: 06:21:46
(UTC+00:00)

Cosmos 2344 - Pass Details

Date: 13 February 2026
Orbit: 1195 x 3047 km, 63.3° (Epoch: 5 March)

Event Time Altitude Azimuth Distance (km) Brightness Sun altitude
Exits shadow 12:10:38 34° 337° (NNW) 2,278 4.7 -33.6°
Maximum altitude 12:15:08 76° 56° (ENE) 1,713 4.2 -32.8°
Drops below altitude 10° 12:26:54 10° 143° (SE) 4,709 6.8 -30.5°
Sets 12:30:58 0° 144° (SE) 5,972 7.4 -29.7°
